Other Public Products
Issued by NWS Charleston, SC

Current Version | Previous Version | Graphics & Text | Print | Product List | Glossary On
Versions: 1 2 3 4 5 6 7 8 9 10 11 12 13 14 15 16 17 18 19 20 21 22 23 24 25 26 27 28 29 30 31 32 33 34 35 36 37 38 39 40 41 42 43 44 45 46 47 48 49 50
000 FPUS82 KCHS 210927 OPUCHS TEST...KCHS/KSAV Gateway Observations...TEST National Weather Service Charleston SC 500 AM EDT MON MAY 21 2018 NOTE: "fair" indicates few or no clouds below 12,000 feet with no significant weather and/or obstructions to visibility. SCZ050-WAZ558-NCZ071-TXZ119-213-PAZ071-DCZ001-FLZ074-172-MI076- NYZ176-178-MAZ016-IL014-TNZ027-NJZ106-GAZ044-MD014-211000- ...Gateway Observations for Charleston International... CITY SKY/WX TMP DP RH WIND PRES REMARKS Chas Airport CLOUDY 71 69 93 N5 30.14R Seattle MOCLDY 56 49 77 N7 30.06F Charlotte CLOUDY 67 66 97 SW3 30.12S Dallas DFW CLOUDY 68 66 93 S3 29.98R Dallas Love CLOUDY 69 66 90 SE5 29.99R Philladelphia CLOUDY 63 55 75 N7 30.14R Wash National MOCLDY 69 61 75 NE14 30.13R Baltimore MOCLDY 66 62 87 E7 30.12R Miami MOCLDY 76 74 93 E8 30.01R Detroit MOCLDY 51 44 77 NE6 30.21S Newark FAIR 59 53 80 N6 30.13R Laguardia FAIR 61 53 75 NE3 30.12R J F K FAIR 59 55 87 N5 30.13R Boston Logan FAIR 58 49 72 NW8 30.10R Ft. Lauderdale MOCLDY 77 76 96 SE15 30.00S Chicago O`Hare CLOUDY 50 43 77 NE8 30.13F Chicago Midway CLOUDY 52 47 83 NE5 30.14S Houston Bush FAIR 69 69 100 NE5 29.96R Houston Hobby FAIR 72 72 100 E3 29.94R Nashville CLOUDY 68 65 90 S5 30.08S Atlanta MOCLDY 66 64 93 SE5 30.13F $$ GAZ044-118-TXZ119-213-NCZ071-DCZ001-MDZ014-506-PAZ021-071-NJZ106- NYZ176-178-MAZ106-OHZ011-021-055-MIZ076-KYZ091-ILZ014-INZ047- MNZ060-ONZ431-211000- ...Gateway Observations for Savannah International... CITY SKY/WX TMP DP RH WIND PRES REMARKS Savannah Arpt FAIR 70 68 93 CALM 30.11F Atlanta MOCLDY 66 64 93 SE5 30.13F Charlotte CLOUDY 67 66 97 SW3 30.12S Dallas DFW CLOUDY 68 66 93 S3 29.98R Houston Bush FAIR 69 69 100 NE5 29.96R Wash National MOCLDY 69 61 75 NE14 30.13R Wash Dulles MOCLDY 67 62 84 N7 30.13R Baltimore MOCLDY 66 62 87 E7 30.12R Philadelphia CLOUDY 63 55 75 N7 30.14R Newark FAIR 59 53 80 N6 30.13R Laguardia FAIR 61 53 75 NE3 30.12R J F K FAIR 59 55 87 N5 30.13R Boston FAIR 58 49 72 NW8 30.10R Pittsburg MOCLDY 59 55 87 N5 30.17R Akron FAIR 56 51 84 NE5 30.19S Cleveland MOCLDY 53 48 83 N8 30.21S Cincinnati CLOUDY 68 64 87 NE6 30.09S Columbus CLOUDY 61 58 90 MISG 30.14R Detroit MOCLDY 51 44 77 NE6 30.21S Chicago O`Hare CLOUDY 50 43 77 NE8 30.13F Minneapolis CLOUDY 61 46 57 SE13 30.13S Indianapolis FAIR 67 63 87 NE7 30.08F Toronto Canada CLEAR 45 37 76 NW7 30.21R $$

USA.gov is the U.S. government's official web portal to all federal, state and local government web resources and services.